TimeCDT,TemperatureF,Dew PointF,Humidity,Sea Level PressureIn,VisibilityMPH,Wind Direction,Wind SpeedMPH,Gust SpeedMPH,PrecipitationIn,Events,Conditions,WindDirDegrees,DateUTC
12:51 AM,75.9,66.9,74,29.94,10.0,SSE,3.5,-,N/A,,Clear,160,2013-06-14 05:51:00
1:51 AM,75.0,66.9,76,29.93,10.0,South,4.6,-,N/A,,Clear,190,2013-06-14 06:51:00
2:51 AM,73.9,64.9,73,29.92,10.0,SSE,4.6,-,N/A,,Clear,160,2013-06-14 07:51:00
3:51 AM,73.0,66.0,79,29.92,10.0,SSE,4.6,-,N/A,,Clear,160,2013-06-14 08:51:00
4:51 AM,73.9,64.9,73,29.91,10.0,South,5.8,-,N/A,,Overcast,170,2013-06-14 09:51:00
5:51 AM,73.0,64.9,76,29.93,10.0,SE,3.5,-,N/A,,Overcast,130,2013-06-14 10:51:00
6:51 AM,72.0,66.9,84,29.95,10.0,ESE,3.5,-,0.00,Rain,Light Rain,110,2013-06-14 11:51:00
7:51 AM,68.0,64.0,87,29.99,7.0,SE,10.4,-,0.06,Rain,Light Rain,130,2013-06-14 12:51:00
8:51 AM,69.1,64.9,87,30.00,10.0,East,4.6,-,0.06,,Overcast,90,2013-06-14 13:51:00
9:51 AM,72.0,66.9,84,30.00,10.0,ESE,4.6,-,0.00,,Scattered Clouds,120,2013-06-14 14:51:00
10:51 AM,77.0,68.0,74,29.97,10.0,SE,9.2,-,N/A,,Mostly Cloudy,130,2013-06-14 15:51:00
11:51 AM,80.1,66.9,64,29.96,10.0,SSE,11.5,-,N/A,,Clear,150,2013-06-14 16:51:00
12:51 PM,81.0,63.0,54,29.95,10.0,SE,11.5,-,N/A,,Partly Cloudy,140,2013-06-14 17:51:00
1:51 PM,81.0,66.0,60,29.95,10.0,SSE,13.8,-,0.00,Rain,Light Rain,150,2013-06-14 18:51:00
2:51 PM,82.0,66.0,58,29.93,10.0,SSE,11.5,20.7,0.00,Rain,Light Rain,150,2013-06-14 19:51:00
3:51 PM,84.9,64.9,51,29.89,10.0,ESE,13.8,19.6,0.00,,Mostly Cloudy,120,2013-06-14 20:51:00
4:51 PM,86.0,64.0,48,29.88,10.0,SSE,19.6,25.3,N/A,,Mostly Cloudy,150,2013-06-14 21:51:00
5:42 PM,82.4,64.4,54,29.96,2.0,SSE,17.3,-,0.00,Rain,Light Rain,160,2013-06-14 22:42:00
5:51 PM,82.0,66.0,58,29.89,10.0,SSE,13.8,-,0.00,,Clear,160,2013-06-14 22:51:00
6:51 PM,80.1,66.9,64,29.89,10.0,SE,11.5,-,0.00,,Partly Cloudy,140,2013-06-14 23:51:00
7:51 PM,79.0,66.9,66,29.92,10.0,SSE,12.7,-,N/A,,Mostly Cloudy,150,2013-06-15 00:51:00
8:51 PM,77.0,68.0,74,29.93,10.0,SE,8.1,-,N/A,,Overcast,130,2013-06-15 01:51:00
9:51 PM,75.9,69.1,79,29.94,10.0,East,3.5,-,0.00,,Overcast,80,2013-06-15 02:51:00
10:51 PM,75.0,69.1,82,29.94,10.0,Calm,Calm,-,0.00,,Partly Cloudy,0,2013-06-15 03:51:00
11:51 PM,73.9,69.1,85,29.95,10.0,SSE,3.5,-,N/A,,Overcast,150,2013-06-15 04:51:00